Time,TemperatureF,DewpointF,PressureIn,WindDirection,WindDirectionDegrees,WindSpeedMPH,WindSpeedGustMPH,Humidity,HourlyPrecipIn,Conditions,Clouds,dailyrainin,SoftwareType,DateUTC
2013-05-04 00:01:00,63.7,54.9,29.82,SE,135,2.4,3.5,73,0.00,CLR,SKC,0.16,WeatherDisplay:10.37,2013-05-04 04:01:00,
2013-05-04 00:06:00,63.7,54.5,29.82,ESE,112,1.6,5.8,72,0.00,RA,SKC,0.00,WeatherDisplay:10.37,2013-05-04 04:06:00,
2013-05-04 00:11:00,63.7,54.1,29.82,NE,45,1.5,6.9,71,0.00,RA,SKC,0.00,WeatherDisplay:10.37,2013-05-04 04:11:00,
2013-05-04 00:16:00,63.7,53.7,29.82,SE,135,1.5,11.5,70,0.00,CLR,SKC,0.00,WeatherDisplay:10.37,2013-05-04 04:16:00,
2013-05-04 00:21:00,63.5,53.1,29.82,ESE,112,2.5,3.5,69,0.00,CLR,SKC,0.00,WeatherDisplay:10.37,2013-05-04 04:21:00,
2013-05-04 00:26:00,63.5,53.1,29.82,ESE,112,3.7,4.5,69,0.00,CLR,SKC,0.00,WeatherDisplay:10.37,2013-05-04 04:26:00,
2013-05-04 00:31:00,63.5,52.7,29.83,ESE,112,1.1,2.3,68,0.00,CLR,SKC,0.00,WeatherDisplay:10.37,2013-05-04 04:31:00,
2013-05-04 00:36:00,63.3,52.2,29.83,ESE,112,3.8,5.8,67,0.00,CLR,SKC,0.00,WeatherDisplay:10.37,2013-05-04 04:36:00,
2013-05-04 00:41:00,63.3,51.8,29.83,ESE,112,3.0,3.0,66,0.00,CLR,SKC,0.00,WeatherDisplay:10.37,2013-05-04 04:41:00,
2013-05-04 00:46:00,63.3,51.8,29.83,East,90,2.9,5.8,66,0.00,CLR,SKC,0.00,WeatherDisplay:10.37,2013-05-04 04:46:00,
2013-05-04 00:51:00,63.3,51.8,29.83,ESE,112,2.3,4.6,66,0.00,CLR,SKC,0.00,WeatherDisplay:10.37,2013-05-04 04:51:00,
2013-05-04 00:56:00,63.3,51.3,29.83,SSE,158,0.0,3.5,65,0.00,CLR,SKC,0.00,WeatherDisplay:10.37,2013-05-04 04:56:00,
2013-05-04 01:01:00,63.3,50.9,29.83,SE,135,0.6,1.1,64,0.00,CLR,SKC,0.00,WeatherDisplay:10.37,2013-05-04 05:01:00,
2013-05-04 01:06:00,63.3,50.9,29.83,East,90,1.8,3.5,64,0.00,CLR,SKC,0.00,WeatherDisplay:10.37,2013-05-04 05:06:00,
2013-05-04 01:11:00,63.3,50.9,29.82,ESE,112,1.9,6.5,64,0.00,CLR,SKC,0.00,WeatherDisplay:10.37,2013-05-04 05:11:00,
2013-05-04 01:16:00,63.3,50.9,29.83,SE,135,2.6,5.8,64,0.00,CLR,SKC,0.00,WeatherDisplay:10.37,2013-05-04 05:16:00,
2013-05-04 01:21:00,63.1,50.3,29.83,ESE,112,2.5,5.8,63,0.00,CLR,SKC,0.00,WeatherDisplay:10.37,2013-05-04 05:21:00,
2013-05-04 01:26:00,63.1,50.3,29.83,ESE,112,0.0,0.0,63,0.00,CLR,SKC,0.00,WeatherDisplay:10.37,2013-05-04 05:26:00,
2013-05-04 01:31:00,63.1,49.9,29.83,SE,135,1.5,4.6,62,0.00,CLR,SKC,0.00,WeatherDisplay:10.37,2013-05-04 05:31:00,
2013-05-04 01:36:00,63.0,49.7,29.83,ESE,112,3.0,6.9,62,0.00,CLR,SKC,0.00,WeatherDisplay:10.37,2013-05-04 05:36:00,
2013-05-04 01:41:00,63.0,49.7,29.83,SE,135,0.8,1.1,62,0.00,CLR,SKC,0.00,WeatherDisplay:10.37,2013-05-04 05:41:00,
2013-05-04 01:46:00,62.8,49.6,29.83,ESE,112,2.4,4.6,62,0.00,CLR,SKC,0.00,WeatherDisplay:10.37,2013-05-04 05:46:00,
2013-05-04 01:51:00,62.8,49.6,29.84,ESE,112,0.7,1.1,62,0.00,CLR,SKC,0.00,WeatherDisplay:10.37,2013-05-04 05:51:00,
2013-05-04 01:56:00,62.4,49.2,29.83,SE,135,0.3,1.1,62,0.00,CLR,SKC,0.00,WeatherDisplay:10.37,2013-05-04 05:56:00,
2013-05-04 02:01:00,62.4,49.2,29.84,SE,135,0.4,2.3,62,0.00,CLR,SKC,0.00,WeatherDisplay:10.37,2013-05-04 06:01:00,
2013-05-04 02:06:00,62.4,49.2,29.84,ESE,112,0.9,3.5,62,0.00,CLR,SKC,0.00,WeatherDisplay:10.37,2013-05-04 06:06:00,
2013-05-04 02:11:00,62.4,49.2,29.84,ESE,112,0.0,2.3,62,0.00,CLR,SKC,0.00,WeatherDisplay:10.37,2013-05-04 06:11:00,
2013-05-04 02:16:00,62.2,49.1,29.84,East,90,0.2,2.3,62,0.00,CLR,SKC,0.00,WeatherDisplay:10.37,2013-05-04 06:16:00,
2013-05-04 02:21:00,62.2,49.1,29.83,ESE,112,0.0,1.3,62,0.00,CLR,SKC,0.00,WeatherDisplay:10.37,2013-05-04 06:21:00,
2013-05-04 02:26:00,62.1,49.3,29.83,SE,135,0.0,0.0,63,0.00,CLR,SKC,0.00,WeatherDisplay:10.37,2013-05-04 06:26:00,
2013-05-04 02:31:00,61.9,49.1,29.84,SE,135,0.0,0.0,63,0.00,CLR,SKC,0.00,WeatherDisplay:10.37,2013-05-04 06:31:00,
2013-05-04 02:36:00,61.9,49.1,29.83,SE,135,0.0,0.0,63,0.00,CLR,SKC,0.00,WeatherDisplay:10.37,2013-05-04 06:36:00,
2013-05-04 02:41:00,61.7,49.0,29.83,ESE,112,0.5,2.3,63,0.00,CLR,SKC,0.00,WeatherDisplay:10.37,2013-05-04 06:41:00,
2013-05-04 02:46:00,61.5,49.2,29.84,ESE,112,0.0,0.0,64,0.00,CLR,SKC,0.00,WeatherDisplay:10.37,2013-05-04 06:46:00,
2013-05-04 02:51:00,61.3,49.1,29.83,ESE,112,0.0,0.0,64,0.00,CLR,SKC,0.00,WeatherDisplay:10.37,2013-05-04 06:51:00,
2013-05-04 02:56:00,61.2,48.9,29.83,SE,135,0.0,0.0,64,0.00,CLR,SKC,0.00,WeatherDisplay:10.37,2013-05-04 06:56:00,
2013-05-04 03:01:00,61.0,48.7,29.83,SSE,158,0.0,0.0,64,0.00,CLR,SKC,0.00,WeatherDisplay:10.37,2013-05-04 07:01:00,
2013-05-04 03:06:00,61.0,48.7,29.83,SSE,158,0.0,0.0,64,0.00,CLR,SKC,0.00,WeatherDisplay:10.37,2013-05-04 07:06:00,
2013-05-04 03:11:00,61.0,49.1,29.83,East,90,0.0,0.0,65,0.00,CLR,SKC,0.00,WeatherDisplay:10.37,2013-05-04 07:11:00,
2013-05-04 03:16:00,61.0,49.1,29.83,ESE,112,0.0,0.0,65,0.00,CLR,SKC,0.00,WeatherDisplay:10.37,2013-05-04 07:16:00,
2013-05-04 03:21:00,61.0,49.1,29.83,ESE,112,0.0,0.0,65,0.00,CLR,SKC,0.00,WeatherDisplay:10.37,2013-05-04 07:21:00,
2013-05-04 03:26:00,60.6,48.8,29.83,ESE,112,0.0,0.0,65,0.00,CLR,SKC,0.00,WeatherDisplay:10.37,2013-05-04 07:26:00,
2013-05-04 03:31:00,60.6,48.8,29.83,ESE,112,0.2,0.0,65,0.00,CLR,SKC,0.00,WeatherDisplay:10.37,2013-05-04 07:31:00,
2013-05-04 03:36:00,60.6,48.8,29.83,ESE,112,0.0,0.0,65,0.00,CLR,SKC,0.00,WeatherDisplay:10.37,2013-05-04 07:36:00,
2013-05-04 03:41:00,60.6,48.8,29.83,SE,135,0.0,1.1,65,0.00,CLR,SKC,0.00,WeatherDisplay:10.37,2013-05-04 07:41:00,
2013-05-04 03:46:00,60.6,48.8,29.83,East,90,0.0,0.0,65,0.00,CLR,SKC,0.00,WeatherDisplay:10.37,2013-05-04 07:46:00,
2013-05-04 03:51:00,60.6,48.8,29.83,NE,45,0.0,0.0,65,0.00,CLR,SKC,0.00,WeatherDisplay:10.37,2013-05-04 07:51:00,
2013-05-04 03:56:00,60.4,49.0,29.83,NE,45,0.0,0.0,66,0.00,CLR,SKC,0.00,WeatherDisplay:10.37,2013-05-04 07:56:00,
2013-05-04 04:01:00,60.4,49.0,29.83,NE,45,0.0,0.0,66,0.00,CLR,SKC,0.00,WeatherDisplay:10.37,2013-05-04 08:01:00,
2013-05-04 04:06:00,60.1,48.7,29.84,NE,45,0.0,0.0,66,0.00,CLR,SKC,0.00,WeatherDisplay:10.37,2013-05-04 08:06:00,
2013-05-04 04:11:00,60.1,48.7,29.84,NE,45,0.0,0.0,66,0.00,CLR,SKC,0.00,WeatherDisplay:10.37,2013-05-04 08:11:00,
2013-05-04 04:16:00,59.9,48.5,29.83,NE,45,0.0,0.0,66,0.00,CLR,SKC,0.00,WeatherDisplay:10.37,2013-05-04 08:16:00,
2013-05-04 04:21:00,59.9,48.5,29.83,NE,45,0.0,0.0,66,0.00,CLR,SKC,0.00,WeatherDisplay:10.37,2013-05-04 08:21:00,
2013-05-04 04:26:00,59.7,48.7,29.84,NE,45,0.0,0.0,67,0.00,CLR,SKC,0.00,WeatherDisplay:10.37,2013-05-04 08:26:00,
2013-05-04 04:31:00,59.5,48.6,29.84,NE,45,0.0,0.0,67,0.00,CLR,SKC,0.00,WeatherDisplay:10.37,2013-05-04 08:31:00,
2013-05-04 04:36:00,59.4,48.8,29.84,NE,45,0.0,0.0,68,0.00,CLR,SKC,0.00,WeatherDisplay:10.37,2013-05-04 08:36:00,
2013-05-04 04:41:00,59.2,48.6,29.84,NE,45,0.0,0.0,68,0.00,CLR,SKC,0.00,WeatherDisplay:10.37,2013-05-04 08:41:00,
2013-05-04 04:46:00,59.2,48.6,29.84,NE,45,0.0,0.0,68,0.00,CLR,SKC,0.00,WeatherDisplay:10.37,2013-05-04 08:46:00,
2013-05-04 04:51:00,59.0,48.8,29.84,NE,45,0.0,0.0,69,0.00,CLR,SKC,0.00,WeatherDisplay:10.37,2013-05-04 08:51:00,
2013-05-04 04:56:00,58.8,48.3,29.84,NE,45,0.0,0.0,68,0.00,CLR,SKC,0.00,WeatherDisplay:10.37,2013-05-04 08:56:00,
2013-05-04 05:01:00,58.8,48.7,29.85,NE,45,0.0,0.0,69,0.00,CLR,SKC,0.00,WeatherDisplay:10.37,2013-05-04 09:01:00,
2013-05-04 05:06:00,58.8,48.7,29.84,NE,45,0.0,0.0,69,0.00,CLR,SKC,0.00,WeatherDisplay:10.37,2013-05-04 09:06:00,
2013-05-04 05:11:00,58.8,48.7,29.84,NE,45,0.0,0.0,69,0.00,CLR,SKC,0.00,WeatherDisplay:10.37,2013-05-04 09:11:00,
2013-05-04 05:16:00,58.8,48.7,29.84,ENE,68,0.0,0.0,69,0.00,CLR,SKC,0.00,WeatherDisplay:10.37,2013-05-04 09:16:00,
2013-05-04 05:21:00,58.6,48.5,29.84,ENE,68,0.0,0.0,69,0.00,CLR,SKC,0.00,WeatherDisplay:10.37,2013-05-04 09:21:00,
2013-05-04 05:26:00,58.6,48.5,29.84,ENE,68,0.0,0.0,69,0.00,CLR,SKC,0.00,WeatherDisplay:10.37,2013-05-04 09:26:00,
2013-05-04 05:31:00,58.6,48.5,29.84,ENE,68,0.0,1.1,69,0.00,CLR,SKC,0.00,WeatherDisplay:10.37,2013-05-04 09:31:00,
2013-05-04 05:36:00,58.6,48.5,29.84,ENE,68,0.0,0.0,69,0.00,CLR,SKC,0.00,WeatherDisplay:10.37,2013-05-04 09:36:00,
2013-05-04 05:41:00,58.6,48.5,29.84,ENE,68,0.0,0.0,69,0.00,CLR,SKC,0.00,WeatherDisplay:10.37,2013-05-04 09:41:00,
2013-05-04 05:46:00,58.6,48.5,29.84,ENE,68,0.0,0.0,69,0.00,CLR,SKC,0.00,WeatherDisplay:10.37,2013-05-04 09:46:00,
2013-05-04 05:51:00,58.6,48.5,29.84,ENE,68,0.0,0.0,69,0.00,CLR,SKC,0.00,WeatherDisplay:10.37,2013-05-04 09:51:00,
2013-05-04 05:56:00,58.5,48.3,29.84,ENE,68,0.0,0.0,69,0.00,CLR,SKC,0.00,WeatherDisplay:10.37,2013-05-04 09:56:00,
2013-05-04 06:01:00,58.5,48.3,29.85,NE,45,0.0,0.0,69,0.00,CLR,SKC,0.00,WeatherDisplay:10.37,2013-05-04 10:01:00,
2013-05-04 06:06:00,58.3,48.2,29.85,NE,45,0.0,0.0,69,0.00,CLR,SKC,0.00,WeatherDisplay:10.37,2013-05-04 10:06:00,
2013-05-04 06:11:00,58.3,48.5,29.85,NE,45,0.0,0.0,70,0.00,CLR,SKC,0.00,WeatherDisplay:10.37,2013-05-04 10:11:00,
2013-05-04 06:16:00,58.1,48.4,29.84,ENE,68,0.3,1.1,70,0.00,CLR,SKC,0.00,WeatherDisplay:10.37,2013-05-04 10:16:00,
2013-05-04 06:21:00,58.1,48.4,29.85,ENE,68,0.0,0.0,70,0.00,CLR,SKC,0.00,WeatherDisplay:10.37,2013-05-04 10:21:00,
2013-05-04 06:26:00,58.1,48.0,29.85,East,90,0.0,0.0,69,0.00,CLR,SKC,0.00,WeatherDisplay:10.37,2013-05-04 10:26:00,
2013-05-04 06:31:00,58.1,48.0,29.85,East,90,0.0,0.0,69,0.00,CLR,SKC,0.00,WeatherDisplay:10.37,2013-05-04 10:31:00,
2013-05-04 06:36:00,58.1,48.0,29.85,ESE,112,0.0,0.0,69,0.00,CLR,SKC,0.00,WeatherDisplay:10.37,2013-05-04 10:36:00,
2013-05-04 06:41:00,58.1,48.0,29.85,ENE,68,0.0,0.0,69,0.00,CLR,SKC,0.00,WeatherDisplay:10.37,2013-05-04 10:41:00,
2013-05-04 06:46:00,58.1,48.0,29.85,ENE,68,0.0,0.0,69,0.00,CLR,SKC,0.00,WeatherDisplay:10.37,2013-05-04 10:46:00,
2013-05-04 06:51:00,58.1,48.0,29.86,East,90,0.0,0.0,69,0.00,CLR,SKC,0.00,WeatherDisplay:10.37,2013-05-04 10:51:00,
2013-05-04 06:56:00,58.1,48.0,29.86,ESE,112,0.0,0.0,69,0.00,CLR,SKC,0.00,WeatherDisplay:10.37,2013-05-04 10:56:00,
2013-05-04 07:01:00,58.1,48.0,29.86,ENE,68,0.0,0.0,69,0.00,CLR,SKC,0.00,WeatherDisplay:10.37,2013-05-04 11:01:00,
2013-05-04 07:06:00,58.1,48.0,29.86,ENE,68,0.7,2.3,69,0.00,CLR,SKC,0.00,WeatherDisplay:10.37,2013-05-04 11:06:00,
2013-05-04 07:11:00,58.3,48.2,29.86,East,90,0.0,0.0,69,0.00,CLR,SKC,0.00,WeatherDisplay:10.37,2013-05-04 11:11:00,
2013-05-04 07:16:00,58.3,48.2,29.86,ENE,68,0.5,3.5,69,0.00,CLR,SKC,0.00,WeatherDisplay:10.37,2013-05-04 11:16:00,
2013-05-04 07:21:00,58.3,48.2,29.86,ENE,68,0.0,0.0,69,0.00,CLR,SKC,0.00,WeatherDisplay:10.37,2013-05-04 11:21:00,
2013-05-04 07:26:00,58.5,48.3,29.86,ENE,68,0.0,0.0,69,0.00,CLR,SKC,0.00,WeatherDisplay:10.37,2013-05-04 11:26:00,
2013-05-04 07:31:00,58.8,48.7,29.86,SE,135,0.0,0.0,69,0.00,CLR,SKC,0.00,WeatherDisplay:10.37,2013-05-04 11:31:00,
2013-05-04 07:36:00,58.8,48.7,29.86,SE,135,0.0,0.0,69,0.00,CLR,SKC,0.00,WeatherDisplay:10.37,2013-05-04 11:36:00,
2013-05-04 07:41:00,58.8,48.7,29.87,SE,135,0.0,0.0,69,0.00,CLR,SKC,0.00,WeatherDisplay:10.37,2013-05-04 11:41:00,
2013-05-04 07:46:00,59.2,49.0,29.87,ESE,112,0.0,1.1,69,0.00,CLR,SKC,0.00,WeatherDisplay:10.37,2013-05-04 11:46:00,
2013-05-04 07:52:00,59.2,49.0,29.87,ENE,68,0.1,1.1,69,0.00,CLR,SKC,0.00,WeatherDisplay:10.37,2013-05-04 11:52:00,
2013-05-04 07:57:00,59.2,49.0,29.87,ESE,112,0.6,1.1,69,0.00,CLR,SKC,0.00,WeatherDisplay:10.37,2013-05-04 11:57:00,
2013-05-04 08:02:00,59.4,49.2,29.87,ESE,112,0.0,1.1,69,0.00,CLR,SKC,0.00,WeatherDisplay:10.37,2013-05-04 12:02:00,
2013-05-04 08:07:00,59.5,49.4,29.87,SE,135,0.7,2.3,69,0.00,CLR,SKC,0.00,WeatherDisplay:10.37,2013-05-04 12:07:00,
2013-05-04 08:13:00,59.7,49.5,29.87,NE,45,0.6,1.1,69,0.00,CLR,SKC,0.00,WeatherDisplay:10.37,2013-05-04 12:13:00,
2013-05-04 08:18:00,60.1,49.5,29.87,ENE,68,0.0,0.0,68,0.00,CLR,SKC,0.00,WeatherDisplay:10.37,2013-05-04 12:18:00,
2013-05-04 08:23:00,60.1,49.5,29.87,ESE,112,0.1,0.0,68,0.00,CLR,SKC,0.00,WeatherDisplay:10.37,2013-05-04 12:23:00,
2013-05-04 08:28:00,60.4,49.8,29.87,ENE,68,1.0,0.0,68,0.00,CLR,SKC,0.00,WeatherDisplay:10.37,2013-05-04 12:28:00,
2013-05-04 08:33:00,60.4,49.8,29.87,SSE,158,0.1,0.7,68,0.00,CLR,SKC,0.00,WeatherDisplay:10.37,2013-05-04 12:33:00,
2013-05-04 08:38:00,60.6,49.6,29.87,ENE,68,1.8,2.3,67,0.00,CLR,SKC,0.00,WeatherDisplay:10.37,2013-05-04 12:38:00,
2013-05-04 08:43:00,61.0,49.9,29.88,SE,135,0.0,3.5,67,0.00,CLR,SKC,0.00,WeatherDisplay:10.37,2013-05-04 12:43:00,
2013-05-04 08:48:00,61.3,50.3,29.88,East,90,0.6,1.1,67,0.00,CLR,SKC,0.00,WeatherDisplay:10.37,2013-05-04 12:48:00,
2013-05-04 08:53:00,61.7,50.6,29.88,ENE,68,1.5,3.5,67,0.00,CLR,SKC,0.00,WeatherDisplay:10.37,2013-05-04 12:53:00,
2013-05-04 08:58:00,62.2,51.1,29.88,SSE,158,0.4,1.1,67,0.00,CLR,SKC,0.00,WeatherDisplay:10.37,2013-05-04 12:58:00,
2013-05-04 09:03:00,62.4,50.9,29.88,SE,135,0.5,2.3,66,0.00,CLR,SKC,0.00,WeatherDisplay:10.37,2013-05-04 13:03:00,
2013-05-04 09:08:00,63.0,51.4,29.88,SE,135,0.0,2.3,66,0.00,CLR,SKC,0.00,WeatherDisplay:10.37,2013-05-04 13:08:00,
2013-05-04 09:13:00,63.1,51.2,29.88,SE,135,0.2,2.3,65,0.00,CLR,SKC,0.00,WeatherDisplay:10.37,2013-05-04 13:13:00,
2013-05-04 09:18:00,63.3,51.3,29.88,East,90,1.2,2.3,65,0.00,CLR,SKC,0.00,WeatherDisplay:10.37,2013-05-04 13:18:00,
2013-05-04 09:23:00,63.5,51.1,29.88,SSE,158,0.7,3.5,64,0.00,CLR,SKC,0.00,WeatherDisplay:10.37,2013-05-04 13:23:00,
2013-05-04 09:28:00,63.7,51.7,29.88,ESE,112,2.2,4.6,65,0.00,CLR,SKC,0.00,WeatherDisplay:10.37,2013-05-04 13:28:00,
2013-05-04 09:33:00,64.0,51.6,29.88,SE,135,1.6,4.6,64,0.00,CLR,SKC,0.00,WeatherDisplay:10.37,2013-05-04 13:33:00,
2013-05-04 09:38:00,64.4,52.0,29.88,East,90,2.9,4.6,64,0.00,CLR,SKC,0.00,WeatherDisplay:10.37,2013-05-04 13:38:00,
2013-05-04 09:43:00,64.8,51.9,29.88,SSE,158,0.9,3.5,63,0.00,CLR,SKC,0.00,WeatherDisplay:10.37,2013-05-04 13:43:00,
2013-05-04 09:48:00,65.1,52.2,29.87,SE,135,3.5,3.5,63,0.00,CLR,SKC,0.00,WeatherDisplay:10.37,2013-05-04 13:48:00,
2013-05-04 09:53:00,65.3,51.9,29.88,SSW,202,4.8,5.8,62,0.00,CLR,SKC,0.00,WeatherDisplay:10.37,2013-05-04 13:53:00,
2013-05-04 09:58:00,65.5,52.1,29.88,East,90,2.0,5.4,62,0.00,CLR,SKC,0.00,WeatherDisplay:10.37,2013-05-04 13:58:00,
2013-05-04 10:03:00,66.0,52.2,29.89,SE,135,1.5,5.8,61,0.00,CLR,SKC,0.00,WeatherDisplay:10.37,2013-05-04 14:03:00,
2013-05-04 10:08:00,66.0,52.2,29.88,SE,135,2.2,3.5,61,0.00,CLR,SKC,0.00,WeatherDisplay:10.37,2013-05-04 14:08:00,
2013-05-04 10:13:00,66.2,52.3,29.88,NNE,22,0.6,2.3,61,0.00,CLR,SKC,0.00,WeatherDisplay:10.37,2013-05-04 14:13:00,
2013-05-04 10:18:00,66.2,51.9,29.88,SSE,158,3.3,3.5,60,0.00,CLR,SKC,0.00,WeatherDisplay:10.37,2013-05-04 14:18:00,
2013-05-04 10:23:00,66.0,51.7,29.88,ESE,112,5.0,6.9,60,0.00,CLR,SKC,0.00,WeatherDisplay:10.37,2013-05-04 14:23:00,
2013-05-04 10:28:00,66.0,51.7,29.88,SE,135,1.4,3.5,60,0.00,CLR,SKC,0.00,WeatherDisplay:10.37,2013-05-04 14:28:00,
2013-05-04 10:33:00,66.4,52.1,29.88,ESE,112,3.1,5.8,60,0.00,CLR,SKC,0.00,WeatherDisplay:10.37,2013-05-04 14:33:00,
2013-05-04 10:38:00,66.6,52.2,29.88,ESE,112,0.1,5.8,60,0.00,CLR,SKC,0.00,WeatherDisplay:10.37,2013-05-04 14:38:00,
2013-05-04 10:43:00,66.7,52.0,29.88,ESE,112,4.3,4.6,59,0.00,CLR,SKC,0.00,WeatherDisplay:10.37,2013-05-04 14:43:00,
2013-05-04 10:48:00,66.9,52.6,29.88,ESE,112,3.3,5.4,60,0.00,CLR,SKC,0.00,WeatherDisplay:10.37,2013-05-04 14:48:00,
2013-05-04 10:53:00,67.3,52.5,29.88,ESE,112,6.9,11.5,59,0.00,CLR,SKC,0.00,WeatherDisplay:10.37,2013-05-04 14:53:00,
2013-05-04 10:58:00,67.6,52.3,29.88,SSE,158,3.6,9.2,58,0.00,CLR,SKC,0.00,WeatherDisplay:10.37,2013-05-04 14:58:00,
2013-05-04 11:03:00,67.8,52.5,29.88,ESE,112,2.5,3.5,58,0.00,CLR,SKC,0.00,WeatherDisplay:10.37,2013-05-04 15:03:00,
2013-05-04 11:08:00,68.2,52.4,29.87,SSE,158,6.4,9.2,57,0.00,CLR,SKC,0.00,WeatherDisplay:10.37,2013-05-04 15:08:00,
2013-05-04 11:13:00,68.5,52.7,29.88,SSE,158,4.4,9.2,57,0.00,CLR,SKC,0.00,WeatherDisplay:10.37,2013-05-04 15:13:00,
2013-05-04 11:18:00,68.7,52.4,29.89,East,90,3.0,9.2,56,0.00,CLR,SKC,0.00,WeatherDisplay:10.37,2013-05-04 15:18:00,
2013-05-04 11:23:00,68.9,52.6,29.88,South,180,3.8,5.8,56,0.00,CLR,SKC,0.00,WeatherDisplay:10.37,2013-05-04 15:23:00,
2013-05-04 11:28:00,69.4,53.1,29.88,South,180,3.6,8.1,56,0.00,CLR,SKC,0.00,WeatherDisplay:10.37,2013-05-04 15:28:00,
2013-05-04 11:33:00,69.6,53.2,29.88,SSE,158,3.0,4.6,56,0.00,CLR,SKC,0.00,WeatherDisplay:10.37,2013-05-04 15:33:00,
2013-05-04 11:38:00,70.0,53.6,29.88,SE,135,1.8,2.3,56,0.00,CLR,SKC,0.00,WeatherDisplay:10.37,2013-05-04 15:38:00,
2013-05-04 11:43:00,70.3,53.4,29.88,East,90,2.0,3.5,55,0.00,CLR,SKC,0.00,WeatherDisplay:10.37,2013-05-04 15:43:00,
2013-05-04 11:48:00,70.3,53.4,29.87,ESE,112,1.0,2.5,55,0.00,CLR,SKC,0.00,WeatherDisplay:10.37,2013-05-04 15:48:00,
2013-05-04 11:53:00,70.5,53.6,29.87,SSE,158,3.2,4.6,55,0.00,CLR,SKC,0.00,WeatherDisplay:10.37,2013-05-04 15:53:00,
2013-05-04 11:58:00,70.9,53.4,29.87,ESE,112,0.9,3.5,54,0.00,CLR,SKC,0.00,WeatherDisplay:10.37,2013-05-04 15:58:00,
2013-05-04 12:03:00,71.4,53.9,29.87,NE,45,1.4,3.5,54,0.00,CLR,SKC,0.00,WeatherDisplay:10.37,2013-05-04 16:03:00,
2013-05-04 12:08:00,71.2,53.2,29.87,SE,135,1.6,3.5,53,0.00,CLR,SKC,0.00,WeatherDisplay:10.37,2013-05-04 16:08:00,
2013-05-04 12:13:00,71.2,53.7,29.87,ENE,68,0.2,3.5,54,0.00,CLR,SKC,0.00,WeatherDisplay:10.37,2013-05-04 16:13:00,
2013-05-04 12:18:00,71.4,53.4,29.87,East,90,3.7,5.8,53,0.00,CLR,SKC,0.00,WeatherDisplay:10.37,2013-05-04 16:18:00,
2013-05-04 12:23:00,71.4,52.9,29.87,SSE,158,1.3,3.5,52,0.00,CLR,SKC,0.00,WeatherDisplay:10.37,2013-05-04 16:23:00,
2013-05-04 12:28:00,71.4,52.9,29.86,ESE,112,0.9,3.5,52,0.00,CLR,SKC,0.00,WeatherDisplay:10.37,2013-05-04 16:28:00,
2013-05-04 12:33:00,71.8,53.7,29.87,SE,135,0.6,3.5,53,0.00,CLR,SKC,0.00,WeatherDisplay:10.37,2013-05-04 16:33:00,
2013-05-04 12:38:00,72.0,53.9,29.87,ENE,68,0.7,8.1,53,0.00,CLR,SKC,0.00,WeatherDisplay:10.37,2013-05-04 16:38:00,
2013-05-04 12:43:00,72.0,53.4,29.87,East,90,1.3,2.3,52,0.00,CLR,SKC,0.00,WeatherDisplay:10.37,2013-05-04 16:43:00,
2013-05-04 12:48:00,71.8,53.7,29.87,ESE,112,0.9,3.5,53,0.00,CLR,SKC,0.00,WeatherDisplay:10.37,2013-05-04 16:48:00,
2013-05-04 12:53:00,72.0,53.4,29.87,SE,135,2.6,4.6,52,0.00,CLR,SKC,0.00,WeatherDisplay:10.37,2013-05-04 16:53:00,
2013-05-04 12:58:00,72.0,53.4,29.87,SSE,158,1.1,3.5,52,0.00,CLR,SKC,0.00,WeatherDisplay:10.37,2013-05-04 16:58:00,
2013-05-04 13:03:00,71.8,53.2,29.87,SE,135,2.7,4.6,52,0.00,CLR,SKC,0.00,WeatherDisplay:10.37,2013-05-04 17:03:00,
2013-05-04 13:08:00,72.1,53.5,29.87,East,90,2.0,4.2,52,0.00,CLR,SKC,0.00,WeatherDisplay:10.37,2013-05-04 17:08:00,
2013-05-04 13:13:00,72.5,53.3,29.87,NNE,22,2.6,4.6,51,0.00,CLR,SKC,0.00,WeatherDisplay:10.37,2013-05-04 17:13:00,
2013-05-04 13:18:00,72.9,53.7,29.87,East,90,1.3,9.2,51,0.00,CLR,SKC,0.00,WeatherDisplay:10.37,2013-05-04 17:18:00,
2013-05-04 13:23:00,73.4,54.2,29.87,NNE,22,3.6,8.0,51,0.00,CLR,SKC,0.00,WeatherDisplay:10.37,2013-05-04 17:23:00,
2013-05-04 13:28:00,73.4,54.2,29.86,ENE,68,3.2,3.5,51,0.00,CLR,SKC,0.00,WeatherDisplay:10.37,2013-05-04 17:28:00,
2013-05-04 13:33:00,73.4,53.6,29.86,SE,135,3.4,5.8,50,0.00,CLR,SKC,0.00,WeatherDisplay:10.37,2013-05-04 17:33:00,
2013-05-04 13:38:00,73.2,53.5,29.86,East,90,1.2,4.6,50,0.00,CLR,SKC,0.00,WeatherDisplay:10.37,2013-05-04 17:38:00,
2013-05-04 13:43:00,73.2,52.9,29.86,ESE,112,2.0,6.9,49,0.00,CLR,SKC,0.00,WeatherDisplay:10.37,2013-05-04 17:43:00,
2013-05-04 13:48:00,73.2,53.5,29.86,ENE,68,2.4,5.8,50,0.00,CLR,SKC,0.00,WeatherDisplay:10.37,2013-05-04 17:48:00,
2013-05-04 13:53:00,73.2,53.5,29.86,SE,135,2.2,5.8,50,0.00,CLR,SKC,0.00,WeatherDisplay:10.37,2013-05-04 17:53:00,
2013-05-04 13:58:00,73.6,53.2,29.86,ENE,68,0.0,2.3,49,0.00,CLR,SKC,0.00,WeatherDisplay:10.37,2013-05-04 17:58:00,
2013-05-04 14:03:00,73.9,53.6,29.86,SSE,158,0.6,3.5,49,0.00,CLR,SKC,0.00,WeatherDisplay:10.37,2013-05-04 18:03:00,
2013-05-04 14:08:00,73.9,53.6,29.86,SE,135,2.1,3.5,49,0.00,CLR,SKC,0.00,WeatherDisplay:10.37,2013-05-04 18:08:00,
2013-05-04 14:13:00,73.8,54.0,29.86,NNE,22,1.2,2.3,50,0.00,CLR,SKC,0.00,WeatherDisplay:10.37,2013-05-04 18:13:00,
2013-05-04 14:18:00,73.9,53.6,29.86,ESE,112,3.3,8.1,49,0.00,CLR,SKC,0.00,WeatherDisplay:10.37,2013-05-04 18:18:00,
2013-05-04 14:23:00,73.6,52.7,29.86,SE,135,3.6,4.6,48,0.00,CLR,SKC,0.00,WeatherDisplay:10.37,2013-05-04 18:23:00,
2013-05-04 14:28:00,73.6,53.2,29.85,East,90,0.9,3.5,49,0.00,CLR,SKC,0.00,WeatherDisplay:10.37,2013-05-04 18:28:00,
2013-05-04 14:33:00,73.6,53.2,29.85,ENE,68,2.9,3.5,49,0.00,CLR,SKC,0.00,WeatherDisplay:10.37,2013-05-04 18:33:00,
2013-05-04 14:38:00,73.6,53.2,29.86,SE,135,0.9,3.5,49,0.00,CLR,SKC,0.00,WeatherDisplay:10.37,2013-05-04 18:38:00,
2013-05-04 14:43:00,73.8,52.8,29.85,SSE,158,4.2,6.9,48,0.00,CLR,SKC,0.00,WeatherDisplay:10.37,2013-05-04 18:43:00,
2013-05-04 14:48:00,74.1,53.2,29.85,East,90,3.8,4.6,48,0.00,CLR,SKC,0.00,WeatherDisplay:10.37,2013-05-04 18:48:00,
2013-05-04 14:53:00,74.5,53.5,29.84,SSE,158,1.4,2.5,48,0.00,CLR,SKC,0.00,WeatherDisplay:10.37,2013-05-04 18:53:00,
2013-05-04 14:58:00,75.0,54.0,29.84,ESE,112,1.8,4.6,48,0.00,CLR,SKC,0.00,WeatherDisplay:10.37,2013-05-04 18:58:00,
2013-05-04 15:03:00,75.4,54.3,29.85,ENE,68,1.5,6.5,48,0.00,CLR,SKC,0.00,WeatherDisplay:10.37,2013-05-04 19:03:00,
2013-05-04 15:08:00,75.4,54.3,29.84,SSE,158,1.0,1.3,48,0.00,CLR,SKC,0.00,WeatherDisplay:10.37,2013-05-04 19:08:00,
2013-05-04 15:13:00,75.4,53.7,29.84,ESE,112,1.9,6.9,47,0.00,CLR,SKC,0.00,WeatherDisplay:10.37,2013-05-04 19:13:00,
2013-05-04 15:18:00,75.7,54.7,29.84,SE,135,2.2,5.8,48,0.00,CLR,SKC,0.00,WeatherDisplay:10.37,2013-05-04 19:18:00,
2013-05-04 15:23:00,75.7,54.1,29.84,East,90,3.1,8.1,47,0.00,CLR,SKC,0.00,WeatherDisplay:10.37,2013-05-04 19:23:00,
2013-05-04 15:28:00,75.7,54.1,29.84,South,180,2.0,3.5,47,0.00,CLR,SKC,0.00,WeatherDisplay:10.37,2013-05-04 19:28:00,
2013-05-04 15:33:00,75.7,53.5,29.84,ENE,68,3.2,4.6,46,0.00,CLR,SKC,0.00,WeatherDisplay:10.37,2013-05-04 19:33:00,
2013-05-04 15:38:00,75.7,54.1,29.84,East,90,0.5,3.5,47,0.00,CLR,SKC,0.00,WeatherDisplay:10.37,2013-05-04 19:38:00,
2013-05-04 15:43:00,75.6,53.3,29.84,SE,135,3.6,9.2,46,0.00,CLR,SKC,0.00,WeatherDisplay:10.37,2013-05-04 19:43:00,
2013-05-04 15:48:00,75.2,53.0,29.84,ENE,68,1.3,4.6,46,0.00,CLR,SKC,0.00,WeatherDisplay:10.37,2013-05-04 19:48:00,
2013-05-04 15:53:00,75.2,53.6,29.84,NE,45,0.9,3.5,47,0.00,CLR,SKC,0.00,WeatherDisplay:10.37,2013-05-04 19:53:00,
2013-05-04 15:58:00,75.6,53.9,29.84,South,180,3.2,3.5,47,0.00,CLR,SKC,0.00,WeatherDisplay:10.37,2013-05-04 19:58:00,
2013-05-04 16:03:00,75.6,53.3,29.84,ENE,68,1.5,3.5,46,0.00,CLR,SKC,0.00,WeatherDisplay:10.37,2013-05-04 20:03:00,
2013-05-04 16:08:00,75.4,53.2,29.84,SSE,158,3.3,4.9,46,0.00,CLR,SKC,0.00,WeatherDisplay:10.37,2013-05-04 20:08:00,
2013-05-04 16:13:00,75.4,52.6,29.84,East,90,5.1,5.1,45,0.00,CLR,SKC,0.00,WeatherDisplay:10.37,2013-05-04 20:13:00,
2013-05-04 16:18:00,75.0,52.2,29.84,ESE,112,1.1,2.3,45,0.00,CLR,SKC,0.00,WeatherDisplay:10.37,2013-05-04 20:18:00,
2013-05-04 16:23:00,75.0,52.2,29.84,SE,135,3.0,4.6,45,0.00,CLR,SKC,0.00,WeatherDisplay:10.37,2013-05-04 20:23:00,
2013-05-04 16:28:00,74.5,51.1,29.84,SE,135,0.9,2.3,44,0.00,CLR,SKC,0.00,WeatherDisplay:10.37,2013-05-04 20:28:00,
2013-05-04 16:33:00,74.5,51.7,29.84,East,90,10.5,15.0,45,0.00,CLR,SKC,0.00,WeatherDisplay:10.37,2013-05-04 20:33:00,
2013-05-04 16:38:00,74.5,51.7,29.84,SE,135,5.6,6.9,45,0.00,CLR,SKC,0.00,WeatherDisplay:10.37,2013-05-04 20:38:00,
2013-05-04 16:43:00,74.5,52.3,29.84,East,90,2.4,4.6,46,0.00,CLR,SKC,0.00,WeatherDisplay:10.37,2013-05-04 20:43:00,
2013-05-04 16:48:00,74.3,51.6,29.84,SSE,158,1.6,3.5,45,0.00,CLR,SKC,0.00,WeatherDisplay:10.37,2013-05-04 20:48:00,
2013-05-04 16:53:00,74.3,51.6,29.84,ESE,112,1.9,3.5,45,0.00,CLR,SKC,0.00,WeatherDisplay:10.37,2013-05-04 20:53:00,
2013-05-04 16:58:00,74.5,52.3,29.84,SE,135,2.3,3.5,46,0.00,CLR,SKC,0.00,WeatherDisplay:10.37,2013-05-04 20:58:00,
2013-05-04 17:03:00,74.3,51.6,29.84,SSW,202,4.1,5.8,45,0.00,CLR,SKC,0.00,WeatherDisplay:10.37,2013-05-04 21:03:00,
2013-05-04 17:08:00,73.9,51.3,29.84,ENE,68,1.0,4.6,45,0.00,CLR,SKC,0.00,WeatherDisplay:10.37,2013-05-04 21:08:00,
2013-05-04 17:13:00,73.4,50.8,29.84,SSE,158,1.6,3.5,45,0.00,CLR,SKC,0.00,WeatherDisplay:10.37,2013-05-04 21:13:00,
2013-05-04 17:18:00,73.2,51.2,29.84,ESE,112,1.5,3.5,46,0.00,CLR,SKC,0.00,WeatherDisplay:10.37,2013-05-04 21:18:00,
2013-05-04 17:23:00,73.0,51.6,29.84,SE,135,2.3,6.3,47,0.00,CLR,SKC,0.00,WeatherDisplay:10.37,2013-05-04 21:23:00,
2013-05-04 17:28:00,73.0,51.0,29.84,SE,135,0.2,3.5,46,0.00,CLR,SKC,0.00,WeatherDisplay:10.37,2013-05-04 21:28:00,
2013-05-04 17:33:00,73.0,51.0,29.84,ESE,112,3.7,5.8,46,0.00,CLR,SKC,0.00,WeatherDisplay:10.37,2013-05-04 21:33:00,
2013-05-04 17:38:00,73.2,51.2,29.84,NE,45,5.0,5.0,46,0.00,CLR,SKC,0.00,WeatherDisplay:10.37,2013-05-04 21:38:00,
2013-05-04 17:43:00,73.2,51.2,29.84,SE,135,0.1,4.6,46,0.00,CLR,SKC,0.00,WeatherDisplay:10.37,2013-05-04 21:43:00,
2013-05-04 17:48:00,73.6,51.5,29.84,SSE,158,0.4,4.7,46,0.00,CLR,SKC,0.00,WeatherDisplay:10.37,2013-05-04 21:48:00,
2013-05-04 17:53:00,73.9,51.3,29.84,ESE,112,2.7,8.1,45,0.00,CLR,SKC,0.00,WeatherDisplay:10.37,2013-05-04 21:53:00,
2013-05-04 17:58:00,74.1,51.4,29.84,SE,135,0.2,3.1,45,0.00,CLR,SKC,0.00,WeatherDisplay:10.37,2013-05-04 21:58:00,
2013-05-04 18:03:00,73.9,51.3,29.84,SE,135,5.6,5.8,45,0.00,CLR,SKC,0.00,WeatherDisplay:10.37,2013-05-04 22:03:00,
2013-05-04 18:08:00,73.6,50.3,29.84,ESE,112,2.3,4.6,44,0.00,CLR,SKC,0.00,WeatherDisplay:10.37,2013-05-04 22:08:00,
2013-05-04 18:13:00,73.0,50.4,29.84,ESE,112,2.1,2.9,45,0.00,CLR,SKC,0.00,WeatherDisplay:10.37,2013-05-04 22:13:00,
2013-05-04 18:18:00,72.3,49.8,29.84,East,90,1.4,3.1,45,0.00,CLR,SKC,0.00,WeatherDisplay:10.37,2013-05-04 22:18:00,
2013-05-04 18:23:00,72.1,49.6,29.84,ENE,68,0.0,0.0,45,0.00,CLR,SKC,0.00,WeatherDisplay:10.37,2013-05-04 22:23:00,
2013-05-04 18:28:00,71.8,49.9,29.84,SW,225,0.3,1.1,46,0.00,CLR,SKC,0.00,WeatherDisplay:10.37,2013-05-04 22:28:00,
2013-05-04 18:33:00,71.6,50.3,29.85,SE,135,0.0,0.0,47,0.00,CLR,SKC,0.00,WeatherDisplay:10.37,2013-05-04 22:33:00,
2013-05-04 18:38:00,71.6,50.3,29.85,SE,135,2.8,8.1,47,0.00,CLR,SKC,0.00,WeatherDisplay:10.37,2013-05-04 22:38:00,
2013-05-04 18:43:00,71.4,50.7,29.85,WSW,248,3.3,4.6,48,0.00,CLR,SKC,0.00,WeatherDisplay:10.37,2013-05-04 22:43:00,
2013-05-04 18:48:00,71.2,52.2,29.85,South,180,0.6,3.5,51,0.00,CLR,SKC,0.00,WeatherDisplay:10.37,2013-05-04 22:48:00,
2013-05-04 18:53:00,70.7,52.2,29.85,West,270,0.8,1.1,52,0.00,CLR,SKC,0.00,WeatherDisplay:10.37,2013-05-04 22:53:00,
2013-05-04 18:58:00,70.3,52.9,29.85,SSW,202,1.2,0.0,54,0.00,CLR,SKC,0.00,WeatherDisplay:10.37,2013-05-04 22:58:00,
2013-05-04 19:03:00,70.0,53.1,29.86,SSW,202,4.1,4.1,55,0.00,CLR,SKC,0.00,WeatherDisplay:10.37,2013-05-04 23:03:00,
2013-05-04 19:08:00,69.6,53.2,29.86,WSW,248,5.2,9.2,56,0.00,CLR,SKC,0.00,WeatherDisplay:10.37,2013-05-04 23:08:00,
2013-05-04 19:13:00,68.9,53.0,29.87,NW,315,1.4,4.6,57,0.00,CLR,SKC,0.00,WeatherDisplay:10.37,2013-05-04 23:13:00,
2013-05-04 19:18:00,68.4,53.5,29.86,WSW,248,1.6,3.5,59,0.00,CLR,SKC,0.00,WeatherDisplay:10.37,2013-05-04 23:18:00,
2013-05-04 19:23:00,67.8,53.4,29.86,SW,225,1.2,3.5,60,0.00,CLR,SKC,0.00,WeatherDisplay:10.37,2013-05-04 23:23:00,
2013-05-04 19:28:00,67.5,53.5,29.87,SSW,202,2.9,5.8,61,0.00,CLR,SKC,0.00,WeatherDisplay:10.37,2013-05-04 23:28:00,
2013-05-04 19:33:00,66.9,53.0,29.87,SW,225,2.6,5.8,61,0.00,CLR,SKC,0.00,WeatherDisplay:10.37,2013-05-04 23:33:00,
2013-05-04 19:38:00,66.6,53.1,29.87,West,270,0.0,2.3,62,0.00,CLR,SKC,0.00,WeatherDisplay:10.37,2013-05-04 23:38:00,
2013-05-04 19:43:00,66.2,52.3,29.87,WSW,248,1.6,3.5,61,0.00,CLR,SKC,0.00,WeatherDisplay:10.37,2013-05-04 23:43:00,
2013-05-04 19:48:00,66.0,52.2,29.88,SW,225,2.3,4.7,61,0.00,CLR,SKC,0.00,WeatherDisplay:10.37,2013-05-04 23:48:00,
2013-05-04 19:53:00,65.8,52.5,29.88,SSW,202,2.5,4.6,62,0.00,CLR,SKC,0.00,WeatherDisplay:10.37,2013-05-04 23:53:00,
2013-05-04 19:58:00,65.3,52.4,29.88,WSW,248,4.8,9.2,63,0.00,CLR,SKC,0.00,WeatherDisplay:10.37,2013-05-04 23:58:00,
2013-05-04 20:03:00,65.1,52.2,29.88,SW,225,1.9,3.5,63,0.00,CLR,SKC,0.00,WeatherDisplay:10.37,2013-05-05 00:03:00,
2013-05-04 20:08:00,64.9,52.5,29.88,SW,225,0.0,0.0,64,0.00,CLR,SKC,0.00,WeatherDisplay:10.37,2013-05-05 00:08:00,
2013-05-04 20:13:00,64.6,52.5,29.88,WSW,248,0.9,3.5,65,0.00,CLR,SKC,0.00,WeatherDisplay:10.37,2013-05-05 00:13:00,
2013-05-04 20:18:00,64.2,52.2,29.88,SSW,202,0.4,2.3,65,0.00,CLR,SKC,0.00,WeatherDisplay:10.37,2013-05-05 00:18:00,
2013-05-04 20:23:00,64.0,52.4,29.88,WSW,248,4.2,6.3,66,0.00,CLR,SKC,0.00,WeatherDisplay:10.37,2013-05-05 00:23:00,
2013-05-04 20:28:00,63.7,52.1,29.88,WSW,248,0.1,2.9,66,0.00,CLR,SKC,0.00,WeatherDisplay:10.37,2013-05-05 00:28:00,
2013-05-04 20:33:00,63.3,52.2,29.88,SW,225,1.7,4.6,67,0.00,CLR,SKC,0.00,WeatherDisplay:10.37,2013-05-05 00:33:00,
2013-05-04 20:38:00,63.1,52.0,29.89,WSW,248,1.2,2.3,67,0.00,CLR,SKC,0.00,WeatherDisplay:10.37,2013-05-05 00:38:00,
2013-05-04 20:43:00,62.8,52.1,29.89,WSW,248,1.8,2.3,68,0.00,CLR,SKC,0.00,WeatherDisplay:10.37,2013-05-05 00:43:00,
2013-05-04 20:48:00,62.4,51.7,29.88,SSW,202,2.7,5.8,68,0.00,CLR,SKC,0.00,WeatherDisplay:10.37,2013-05-05 00:48:00,
2013-05-04 20:53:00,62.2,51.5,29.88,WSW,248,1.8,3.5,68,0.00,CLR,SKC,0.00,WeatherDisplay:10.37,2013-05-05 00:53:00,
2013-05-04 20:58:00,61.9,51.6,29.88,SSW,202,3.3,3.5,69,0.00,CLR,SKC,0.00,WeatherDisplay:10.37,2013-05-05 00:58:00,
2013-05-04 21:03:00,61.7,51.4,29.88,West,270,0.9,3.5,69,0.00,CLR,SKC,0.00,WeatherDisplay:10.37,2013-05-05 01:03:00,
2013-05-04 21:08:00,61.5,51.6,29.88,SW,225,0.4,4.6,70,0.00,CLR,SKC,0.00,WeatherDisplay:10.37,2013-05-05 01:08:00,
2013-05-04 21:13:00,61.3,51.5,29.88,SW,225,0.4,1.1,70,0.00,CLR,SKC,0.00,WeatherDisplay:10.37,2013-05-05 01:13:00,
2013-05-04 21:18:00,61.2,51.3,29.88,WSW,248,0.0,1.1,70,0.00,CLR,SKC,0.00,WeatherDisplay:10.37,2013-05-05 01:18:00,
2013-05-04 21:23:00,61.0,51.1,29.89,WSW,248,0.9,2.5,70,0.00,CLR,SKC,0.00,WeatherDisplay:10.37,2013-05-05 01:23:00,
2013-05-04 21:28:00,60.8,51.0,29.89,SW,225,0.1,1.1,70,0.00,CLR,SKC,0.00,WeatherDisplay:10.37,2013-05-05 01:28:00,
2013-05-04 21:33:00,60.6,50.8,29.89,West,270,3.3,4.6,70,0.00,CLR,SKC,0.00,WeatherDisplay:10.37,2013-05-05 01:33:00,
2013-05-04 21:38:00,60.6,51.2,29.89,West,270,0.0,0.0,71,0.00,CLR,SKC,0.00,WeatherDisplay:10.37,2013-05-05 01:38:00,
2013-05-04 21:43:00,60.4,51.0,29.89,WSW,248,0.0,0.0,71,0.00,CLR,SKC,0.00,WeatherDisplay:10.37,2013-05-05 01:43:00,
2013-05-04 21:48:00,60.4,51.4,29.89,WSW,248,0.0,1.1,72,0.00,CLR,SKC,0.00,WeatherDisplay:10.37,2013-05-05 01:48:00,
2013-05-04 21:53:00,60.3,51.2,29.89,WNW,292,0.0,0.0,72,0.00,CLR,SKC,0.00,WeatherDisplay:10.37,2013-05-05 01:53:00,
2013-05-04 21:58:00,60.1,51.0,29.89,West,270,1.5,1.5,72,0.00,CLR,SKC,0.00,WeatherDisplay:10.37,2013-05-05 01:58:00,
2013-05-04 22:03:00,60.1,51.0,29.90,WSW,248,0.0,1.1,72,0.00,CLR,SKC,0.00,WeatherDisplay:10.37,2013-05-05 02:03:00,
2013-05-04 22:08:00,59.9,50.8,29.90,WSW,248,0.5,2.5,72,0.00,CLR,SKC,0.00,WeatherDisplay:10.37,2013-05-05 02:08:00,
2013-05-04 22:13:00,59.7,50.7,29.90,West,270,0.0,0.0,72,0.00,CLR,SKC,0.00,WeatherDisplay:10.37,2013-05-05 02:13:00,
2013-05-04 22:18:00,59.7,50.7,29.90,WSW,248,0.0,0.0,72,0.00,CLR,SKC,0.00,WeatherDisplay:10.37,2013-05-05 02:18:00,
2013-05-04 22:23:00,59.5,50.5,29.90,West,270,0.0,0.0,72,0.00,CLR,SKC,0.00,WeatherDisplay:10.37,2013-05-05 02:23:00,
2013-05-04 22:28:00,59.5,50.5,29.90,West,270,0.1,1.1,72,0.00,CLR,SKC,0.00,WeatherDisplay:10.37,2013-05-05 02:28:00,
2013-05-04 22:33:00,59.5,50.5,29.90,West,270,0.0,0.0,72,0.00,CLR,SKC,0.00,WeatherDisplay:10.37,2013-05-05 02:33:00,
2013-05-04 22:38:00,59.4,50.3,29.90,WNW,292,0.0,0.0,72,0.00,CLR,SKC,0.00,WeatherDisplay:10.37,2013-05-05 02:38:00,
2013-05-04 22:43:00,59.4,50.3,29.90,West,270,0.0,1.1,72,0.00,CLR,SKC,0.00,WeatherDisplay:10.37,2013-05-05 02:43:00,
2013-05-04 22:48:00,59.2,50.2,29.90,West,270,0.0,0.0,72,0.00,CLR,SKC,0.00,WeatherDisplay:10.37,2013-05-05 02:48:00,
2013-05-04 22:53:00,59.2,50.2,29.90,NW,315,0.0,0.0,72,0.00,CLR,SKC,0.00,WeatherDisplay:10.37,2013-05-05 02:53:00,
2013-05-04 22:58:00,59.2,50.2,29.91,NW,315,0.0,0.0,72,0.00,CLR,SKC,0.00,WeatherDisplay:10.37,2013-05-05 02:58:00,
2013-05-04 23:03:00,59.0,50.0,29.90,NW,315,0.0,0.0,72,0.00,CLR,SKC,0.00,WeatherDisplay:10.37,2013-05-05 03:03:00,
2013-05-04 23:08:00,58.8,49.8,29.90,North,0,0.0,0.0,72,0.00,CLR,SKC,0.00,WeatherDisplay:10.37,2013-05-05 03:08:00,
2013-05-04 23:13:00,58.8,49.8,29.90,North,0,0.0,0.0,72,0.00,CLR,SKC,0.00,WeatherDisplay:10.37,2013-05-05 03:13:00,
2013-05-04 23:18:00,58.6,49.6,29.90,North,0,0.0,0.0,72,0.00,CLR,SKC,0.00,WeatherDisplay:10.37,2013-05-05 03:18:00,
2013-05-04 23:23:00,58.5,49.8,29.90,NNW,338,0.0,0.0,73,0.00,CLR,SKC,0.00,WeatherDisplay:10.37,2013-05-05 03:23:00,
2013-05-04 23:28:00,58.3,49.7,29.90,North,0,0.0,0.0,73,0.00,CLR,SKC,0.00,WeatherDisplay:10.37,2013-05-05 03:28:00,
2013-05-04 23:33:00,58.3,50.0,29.91,NE,45,0.0,0.0,74,0.00,CLR,SKC,0.00,WeatherDisplay:10.37,2013-05-05 03:33:00,
2013-05-04 23:38:00,57.9,50.0,29.91,ENE,68,0.0,0.0,75,0.00,CLR,SKC,0.00,WeatherDisplay:10.37,2013-05-05 03:38:00,
2013-05-04 23:43:00,57.9,50.0,29.91,NNE,22,0.0,0.0,75,0.00,CLR,SKC,0.00,WeatherDisplay:10.37,2013-05-05 03:43:00,
2013-05-04 23:48:00,57.7,49.9,29.91,North,0,0.0,0.0,75,0.00,CLR,SKC,0.00,WeatherDisplay:10.37,2013-05-05 03:48:00,
2013-05-04 23:53:00,57.6,49.7,29.91,NNE,22,0.3,0.7,75,0.00,CLR,SKC,0.00,WeatherDisplay:10.37,2013-05-05 03:53:00,
2013-05-04 23:58:00,57.7,50.2,29.90,NNE,22,0.2,2.3,76,0.00,CLR,SKC,0.00,WeatherDisplay:10.37,2013-05-05 03:58:00,